星链-4478 (STARLINK-4478 )

导读 | 豆包AI

STARLINK-4478是美国SpaceX公司星链星座的成员卫星,于2022年8月19日发射升空,属于星链全球低轨互联网组网计划的一部分。它运行在近地轨道,配备相控阵天线与激光通信终端,可实现高速宽带互联,为偏远地区、海洋航空及应急场景提供低延迟互联网接入,是星链大规模星座组网中的一颗标准化量产卫星,助力构建覆盖全球的卫星互联网基础设施。

基本信息
目录编号:
53529
目录名称:
STARLINK-4478
国际标识:
2022-101C
轨道中心:
EARTH
卫星名称:
星链-4478
卫星全名:
星链-4478 (STARLINK-4478 )
卫星状态:
在轨 (已飞行1304 天)
发射日期:
2022-08-19 UTC
国别 :
美国 (US)
星等 :
--
轨道信息
数据来源 国际轨道数据
星历时间: 2026-03-14T13:57:09+0800
1天前
查看轨道信息
半长轴: 6911.631km
偏心率: 0.0003723
轨道倾角: 53.216°
近地点辐角 74.685°
升交点赤经 53.372°
平近点角 285.455°
近地点: 530.92km
远地点: 536.068km
周期: 95.308分钟
每日圈数: 15.108869
详细信息
固有亮度:
5
最大亮度:
2.5
卫星平台:
Starlink v1.5
覆盖范围:
全球
运营商:
太空探索技术公司
运营商所在国:
美国
制造商(研发单位):
太空探索技术公司
制造商所在国:
美国
使用方式:
暂无
卫星简介
星链(Starlink)计划是由太空探索技术公司(SpaceX)提出的一个巨型低轨卫星互联网星座项目,计划在2019年至2024年间在太空搭建由约1.2万颗卫星组成的“星链”网络,其中1584颗将部署在地球上空550千米处的近地轨道,并从2020年开始工作。该卫星仍在工作。
2D轨道图
3D轨道图
轨道高度分析图
轨道倾角分析图
轨道综合分析图
查看轨道综合分析图